Hourly Data Report for October 14, 2014

All times are specified in Local Standard Time (LST). Add 1 hour to adjust for Daylight Saving Time where and when it is observed.

BAKER LAKE A
NUNAVUT

64°17'56.000" N
96°04'40.000" W
18.60 m
2300503
71926
YBK

Download Data

Hourly Data (October 2014)
Hourly Data Report for October 14, 2014
Temp Definition
°C
Dew Point Temp Definition
°C
Rel Hum Definition
%
Wind Dir Definition
10's deg

Wind Spd Definition
km/h
Visibility Definition
km
Stn Press Definition
kPa
Hmdx Definition


Wind Chill Definition


Weather Definition


TIME
00:00 Legend Double Dagger -4.0 -5.7 88 32 4 24.1 100.73   -6 Snow
01:00 Legend Double Dagger -4.2 -5.9 88 22 7 24.1 100.77   -7 LegendNANA
02:00 Legend Double Dagger -5.0 -6.3 91 26 9 24.1 100.80   -9 LegendNANA
03:00 Legend Double Dagger -4.2 -5.8 89 30 8 24.1 100.84   -8 Mostly Cloudy
04:00 Legend Double Dagger -3.9 -5.5 89 29 13 24.1 100.85   -9 LegendNANA
05:00 Legend Double Dagger -4.0 -5.7 88 28 18 24.1 100.88   -10 LegendNANA
06:00 Legend Double Dagger -3.7 -4.5 94 29 14 24.1 100.87   -9 Snow
07:00 Legend Double Dagger -3.7 -4.8 92 33 19 32.2 100.88   -10 Fog
08:00 Legend Double Dagger -3.9 -5.2 91 29 16 32.2 100.88   -9 Snow
09:00 Legend Double Dagger -3.7 -5.6 87 29 16 32.2 100.90   -9 Mostly Cloudy
10:00 Legend Double Dagger -3.7 -5.6 87 30 14 32.2 100.93   -9 LegendNANA
11:00 Legend Double Dagger -2.8 -5.0 85 27 14 24.1 100.95   -8 Snow
12:00 Legend Double Dagger -2.9 -5.6 82 31 18 24.1 100.95   -9 Snow
13:00 Legend Double Dagger -3.1 -5.1 86 30 16 24.1 100.98   -8 Snow
14:00 Legend Double Dagger -2.7 -5.4 82 30 18 32.2 100.96   -8 Snow
15:00 Legend Double Dagger -3.3 -5.5 85 32 15 32.2 100.97   -8 Snow
16:00 Legend Double Dagger -3.5 -6.3 81 32 13 32.2 101.01   -8 LegendNANA
17:00 Legend Double Dagger -4.6 -6.1 89 30 13 32.2 101.02   -10 LegendNANA
18:00 Legend Double Dagger -5.4 -6.9 89 29 17 32.2 101.03   -11 Mainly Clear
19:00 Legend Double Dagger -4.7 -6.1 90 29 17 24.1 101.03   -11 LegendNANA
20:00 Legend Double Dagger -4.6 -5.9 91 30 15 24.1 101.01   -10 LegendNANA
21:00 Legend Double Dagger -4.3 -5.6 91 30 14 24.1 101.03   -9 Mainly Clear
22:00 Legend Double Dagger -4.0 -5.4 90 32 15 24.1 101.06   -9 LegendNANA
23:00 Legend Double Dagger -4.1 -5.4 91 33 8 24.1 101.09   -8 Snow

Notes on Data Quality.

Legend

  • E = Estimated
  • M = Missing
  • NA = Not Available
  • ‡ = Partner data that is not subject to review by the National Climate Archives
Date modified: